Asheville, NC

5:35 AM EST on December 15, 2017 (GMT -0500)
Asheville Regional

Weather History for KAVL - March, 2007

Change the Weather History Date:

Wednesday, March 28, 2007

  Actual Average Record
Temperature  
Mean Temperature 65 °F 50 °F  
Max Temperature 79 °F 62 °F 86 °F (1907)
Min Temperature 50 °F 38 °F 11 °F (1877)
Degree Days  
Heating Degree Days 0 15  
Month to date heating degree days 369 511  
Since 1 July heating degree days 3565 3728  
Cooling Degree Days 0 0  
Month to date cooling degree days 0 0  
Year to date cooling degree days 0 0  
Growing Degree Days 15 (Base 50)    
Moisture  
Dew Point 52 °F    
Average Humidity 64    
Maximum Humidity 96    
Minimum Humidity 32    
Precipitation  
Precipitation T in 0.12 in 1.55 in (1980)
Month to date precipitation 4.15 3.45  
Year to date precipitation 8.95 10.88  
Snow  
Snow 0.00 in 0.10 in 0.50 in (1947)
Month to date snowfall T 1.8  
Since 1 July snowfall 1.9 9.1  
Snow Depth -    
Sea Level Pressure  
Sea Level Pressure 30.14 in    
Wind  
Wind Speed 4 mph (NNW)    
Max Wind Speed 20 mph    
Max Gust Speed 24 mph    
Visibility 8 miles    
Events Rain , Thunderstorm    
T = Trace of Precipitation, MM = Missing Value Source: NWS Daily Summary

Daily Weather History Graph

Daily Weather History Graph

Search for Another Location

Airport or City:

Trip Planner

Search our weather history database for the weather conditions in past years. The results will help you decide how hot, cold, wet, or windy it might be!

Date:

Astronomy

Mar. 28, 2007 Rise Set
Actual Time 7:22 AM EDT 7:48 PM EDT
Civil Twilight 6:57 AM EDT 8:13 PM EDT
Nautical Twilight 6:27 AM EDT 8:43 PM EDT
Astronomical Twilight 5:57 AM EDT 9:14 PM EDT
Moon 3:16 PM EDT (3/28) 4:58 AM EDT (3/28)
Length of Visible Light 13h 16m
Length of Day
12h 25m
Waxing Gibbous, 78% of the Moon is Illuminated
Mar 28
Waxing Gibbous
Apr 2
Full
Apr 10
Last Quarter
Apr 17
New
Apr 24
First Quarter

Hourly Weather History & Observations

Time (EDT) Temp. Dew Point Humidity Pressure Visibility Wind Dir Wind Speed Gust Speed Precip Events Conditions
12:54 AM 59.0 °F 53.1 °F 81% 30.15 in 9.0 mi Calm Calm - N/A   Clear
1:54 AM 57.9 °F 53.1 °F 84% 30.15 in 8.0 mi Calm Calm - N/A   Clear
2:54 AM 55.0 °F 52.0 °F 89% 30.14 in 6.0 mi Calm Calm - N/A   Clear
3:54 AM 54.0 °F 51.1 °F 90% 30.14 in 6.0 mi Calm Calm - N/A   Clear
4:54 AM 54.0 °F 51.1 °F 90% 30.13 in 6.0 mi Calm Calm - N/A   Clear
5:54 AM 52.0 °F 50.0 °F 93% 30.14 in 4.0 mi Calm Calm - N/A   Clear
6:54 AM 53.1 °F 50.0 °F 89% 30.14 in 5.0 mi Calm Calm - N/A   Clear
7:54 AM 51.1 °F 48.9 °F 92% 30.17 in 4.0 mi Calm Calm - N/A   Clear
8:54 AM 54.0 °F 51.1 °F 90% 30.17 in 5.0 mi Calm Calm - N/A   Clear
9:54 AM 61.0 °F 53.1 °F 75% 30.17 in 5.0 mi Calm Calm - N/A   Haze
10:54 AM 68.0 °F 53.1 °F 59% 30.15 in 7.0 mi NNW 4.6 mph - N/A   Clear
11:54 AM 73.0 °F 55.0 °F 53% 30.14 in 10.0 mi NNW 10.4 mph - N/A   Clear
12:54 PM 75.0 °F 53.1 °F 46% 30.13 in 10.0 mi Variable 4.6 mph - N/A   Clear
1:54 PM 75.9 °F 50.0 °F 40% 30.11 in 10.0 mi Variable 3.5 mph - N/A   Clear
2:54 PM 79.0 °F 48.0 °F 34% 30.08 in 10.0 mi Variable 3.5 mph - N/A   Clear
3:54 PM 78.1 °F 46.9 °F 33% 30.07 in 10.0 mi Calm Calm - N/A   Mostly Cloudy
4:54 PM 77.0 °F 46.9 °F 34% 30.06 in 10.0 mi WSW 3.5 mph - 0.00 in   Overcast
5:54 PM 75.9 °F 46.0 °F 35% 30.07 in 10.0 mi SE 4.6 mph - N/A   Mostly Cloudy
6:23 PM 71.6 °F 51.8 °F 50% 30.14 in 10.0 mi North 16.1 mph 23.0 mph N/A   Mostly Cloudy
6:54 PM 66.0 °F 55.9 °F 70% 30.12 in 7.0 mi NNW 11.5 mph - 0.00 in Rain Light Rain
6:58 PM 64.4 °F 57.2 °F 77% 30.16 in 7.0 mi NNW 10.4 mph - 0.00 in Rain , Thunderstorm Light Thunderstorms and Rain
7:25 PM 64.4 °F 57.2 °F 77% 30.17 in 8.0 mi NNW 15.0 mph - 0.00 in   Mostly Cloudy
7:54 PM 64.9 °F 55.9 °F 73% 30.15 in 10.0 mi North 10.4 mph - 0.00 in   Mostly Cloudy
8:54 PM 64.0 °F 55.0 °F 73% 30.16 in 10.0 mi NNW 12.7 mph - 0.00 in Rain Light Rain
9:54 PM 64.0 °F 54.0 °F 70% 30.16 in 10.0 mi NNW 11.5 mph - 0.00 in   Overcast
10:54 PM 63.0 °F 55.9 °F 78% 30.17 in 9.0 mi Calm Calm - N/A   Overcast
11:54 PM 63.0 °F 55.9 °F 78% 30.16 in 8.0 mi Calm Calm - N/A   Overcast